Regional Weather Roundup
Issued by NWS Cleveland, OH

Home | Current Version | Previous Version | Graphics & Text | Print | Product List | Glossary On
Versions: 1 2 3 4 5 6 7 8 9 10 11 12 13 14 15 16 17 18 19 20 21 22 23 24 25 26 27 28 29 30 31 32 33 34 35 36 37 38 39 40 41 42 43 44 45 46 47 48 49 50
000
ASUS41 KCLE 291900
RWRCLE
OHIO REGIONAL WEATHER ROUNDUP
NATIONAL WEATHER SERVICE WILMINGTON, OH
300 PM EDT FRI MAY 29 2015

NOTE: "FAIR" INDICATES FEW OR NO CLOUDS BELOW 12,000 FEET WITH NO
SIGNIFICANT WEATHER AND/OR OBSTRUCTIONS TO VISIBILITY.

OHZ001>008-015>018-024>027-034-035-043-044-292000-
   NORTHWEST OHIO

CITY           SKY/WX    TMP DP  RH WIND       PRES   REMARKS
DEFIANCE       PTSUNNY   82  64  54 S13       30.07F
FINDLAY        MOSUNNY   82  69  64 S16       30.09F
TOLEDO EXPRESS PTSUNNY   81  65  58 S13G21    30.07F
TOLEDO EXEC    MOSUNNY   81  67  62 S12G23    30.09F
LIMA           PTSUNNY   81  65  58 SW16G25   30.10F
$$

OHZ009>014-019>023-028>033-038-089-292000-
   NORTHEAST OHIO

CITY           SKY/WX    TMP DP  RH WIND       PRES   REMARKS
CLE-HOPKINS    PTSUNNY   84  65  52 S15G23    30.13F
CLE-LAKEFRONT  CLOUDY    85  64  49 S15G22    30.10F
CUY CO. ARPT   CLOUDY    84  66  54 SW16      30.13F
LORAIN-ELYRIA  PTSUNNY   84  64  50 S18G25    30.11F
ASHTABULA      PTSUNNY   82  63  52 S9        30.15F
AKRON-CANTON   PTSUNNY   84  65  52 S16       30.15F
WOOSTER        NOT AVBL
MANSFIELD      LGT RAIN  77  64  64 W13G24    30.15S
YOUNGSTOWN     CLOUDY    82  64  54 S7        30.15F
$$

OHZ042-051>053-060>062-070>072-077>081-292000-
  SOUTHWEST OHIO

CITY           SKY/WX    TMP DP  RH WIND       PRES   REMARKS
CINC-COVINGTON PTSUNNY   82  65  56 S13       30.13F
CINC-LUNKEN    PTSUNNY   81  67  62 S13       30.12F
HAMILTON       MOSUNNY   83  67  58 VRB7      30.12F
DAYTON         NOT AVBL
WRIGHT-PAT AFB MOSUNNY   82  66  57 S14G22    30.11F
DAYTON GENERAL MOSUNNY   81  67  62 SW13      30.12F
WILMINGTON     MOSUNNY   84  64  50 SW12      30.13F
$$

OHZ036-037-039>041-045>050-054>059-063>069-073>076-082>088-292000-
  CENTRAL AND SOUTHEAST OHIO

CITY           SKY/WX    TMP DP  RH WIND       PRES   REMARKS
COLUMBUS       CLOUDY    83  64  52 S14G21    30.14F
OSU AIRPORT    CLOUDY    83  64  52 S16G22    30.13F
BOLTON FIELD   PTSUNNY   82  66  57 SW12G20   30.15F
RICKENBACK AFB NOT AVBL
NEWARK         CLOUDY    81  66  60 SW12G22   30.15F
MARION         PTSUNNY   83  65  54 SW20G26   30.12F
LANCASTER      CLOUDY    81  66  60 SW7       30.16F
ZANESVILLE     PTSUNNY   82  66  58 S9        30.16F
NEW PHILLY     PTSUNNY   85  66  53 S7        30.15F
$$


USA.gov is the U.S. government's official web portal to all federal, state and local government web resources and services.